Volver al catálogo

STARLINK-34908

ActivoComunicacionesVLEO
NORAD 65329·PAYLOAD·🇺🇸 United States

Lanzado Aug 27, 2025 desde Cape Canaveral Space Force Station

Loading…

Próximos Pases (próximas 24 horas)

TLE

ActualizadoSource: CelesTrak SupGP

Época: Sep 14, 2026, 15:21 UTC

1 65329C 25189G   26257.64006944 -.00073397  00000+0 -21688-2 0  2579
2 65329  53.1600  46.8609 0001193  88.3925  43.7182 15.34423357    17

Sigue STARLINK-34908 en tiempo real con AllMySat

Download on the App Store